Location: Cran-Gévrier
(45.9039°N, 6.1012°E)
Time: 19:23:18
(UTC+00:00)

Lacrosse 5 rocket - Visible Passes

Search period start: 01 October 2023 00:00
Search period end: 11 October 2023 00:00
Orbit: 449 x 602 km, 57.0° (Epoch: 30 September)

Date Brightness Start Highest point End Pass type
(mag) Time Alt. Az. Time Alt. Az. Time Alt. Az.
01 Oct 1.8 03:08:46 56° ENE 03:08:46 56° ENE 03:11:56 10° NE visible
01 Oct 2.6 04:43:57 12° WNW 04:46:59 25° NNW 04:50:14 10° NE visible
02 Oct 2.6 02:56:25 38° NE 02:56:25 38° NE 02:58:55 10° NE visible
02 Oct 2.7 04:31:36 14° WNW 04:34:01 24° NNW 04:37:12 10° NE visible
03 Oct 3.2 02:44:00 27° NE 02:44:00 27° NE 02:45:52 10° NE visible
03 Oct 2.8 04:19:11 17° WNW 04:21:02 22° NNW 04:24:08 10° NNE visible
04 Oct 3.8 02:31:31 20° NE 02:31:31 20° NE 02:32:47 10° NE visible
04 Oct 2.9 04:06:41 18° NW 04:08:01 21° NNW 04:11:03 10° NNE visible
05 Oct 4.2 02:18:59 15° NE 02:18:59 15° NE 02:19:40 10° NE visible
05 Oct 3.0 03:54:09 19° NW 03:54:59 20° NNW 03:57:57 10° NNE visible
06 Oct 4.5 02:06:24 11° NE 02:06:24 11° NE 02:06:33 10° NE visible
06 Oct 3.1 03:41:34 19° NNW 03:41:55 20° NNW 03:44:49 10° NNE visible
07 Oct 3.2 03:28:56 19° NNW 03:28:56 19° NNW 03:31:40 10° NNE visible
07 Oct 3.4 05:06:04 10° NNW 05:08:41 17° N 05:11:13 10° NE visible
08 Oct 3.4 03:16:17 18° N 03:16:17 18° N 03:18:30 10° NNE visible
08 Oct 3.4 04:52:53 10° NNW 04:55:34 18° N 04:58:11 10° NE visible
09 Oct 3.7 03:03:36 16° N 03:03:36 16° N 03:05:20 10° NNE visible
09 Oct 3.4 04:39:41 10° NNW 04:42:27 18° NNE 04:45:08 10° ENE visible
10 Oct 3.9 02:50:55 15° NNE 02:50:55 15° NNE 02:52:07 10° NE visible
10 Oct 3.3 04:26:26 10° NNW 04:29:18 19° NNE 04:32:03 10° ENE visible
